EW4725 Weather Reports


time (UTC)temp
F
wind
direction
speed
knots
gust
knots
rain 1hr
in
rain 24hr
in
rain mn
in
humidity
%
barometer
mb
20260508070615 61 0.0 0.9 0.00 0.00 0.00 88 1016.0
20260508070116 61 0.0 0.0 0.00 0.00 0.00 88 1016.0
20260508065736 61 0.0 0.0 0.00 0.00 0.00 87 1015.9
20260508065116 61 0.0 0.0 0.00 0.00 0.00 87 1016.0
20260508064616 61 0.0 0.0 0.00 0.00 0.00 86 1016.0
20260508064116 62 0.0 0.0 0.00 0.00 0.00 87 1015.9
20260508063616 61 125 0.9 1.7 0.00 0.00 0.00 87 1015.9
20260508063156 61 0.0 0.9 0.00 0.00 0.00 88 1015.8
20260508062616 61 0.0 0.9 0.00 0.00 0.00 88 1015.8
20260508062116 60 0.0 0.0 0.00 0.00 0.00 87 1015.8
20260508061616 60 0.0 0.0 0.00 0.00 0.00 87 1015.8
20260508061116 61 0.0 0.0 0.00 0.00 0.00 86 1015.8
20260508060616 61 0.0 0.0 0.00 0.00 0.00 86 1015.8
20260508060116 61 0.0 0.0 0.00 0.00 0.00 86 1015.8
20260508055616 61 0.0 0.0 0.00 0.00 0.00 86 1015.8
20260508055116 61 0.0 0.0 0.00 0.00 0.00 86 1015.8
20260508054616 61 0.0 0.0 0.00 0.00 0.00 86 1015.8
20260508054116 61 0.0 0.0 0.00 0.00 0.00 86 1015.8
20260508053636 61 0.0 0.0 0.00 0.00 0.00 85 1015.8
20260508053116 62 0.0 0.0 0.00 0.00 0.00 85 1015.8
20260508052616 62 0.0 0.0 0.00 0.00 0.00 85 1015.9
20260508052116 62 260 0.9 0.9 0.00 0.00 0.00 85 1015.9
20260508051616 62 0.0 0.9 0.00 0.00 0.00 85 1015.9
20260508051116 62 0.0 0.0 0.00 0.00 0.00 84 1015.8
20260508050616 62 0.0 0.9 0.00 0.00 0.00 84 1015.8
20260508050116 62 0.0 0.0 0.00 0.00 0.00 84 1015.8
20260508045636 62 0.0 0.0 0.00 0.00 0.00 83 1015.8
20260508045116 62 0.0 0.0 0.00 0.00 0.00 83 1015.7
20260508044636 62 0.0 0.9 0.00 0.00 0.00 83 1015.7
20260508044116 62 260 0.9 1.7 0.00 0.00 0.00 83 1015.7
20260508043616 62 0.0 0.9 0.00 0.00 0.00 83 1015.6
20260508043116 62 260 0.9 0.9 0.00 0.00 0.00 83 1015.6
20260508042616 62 0.0 0.0 0.00 0.00 0.00 83 1015.6
20260508042116 62 0.0 0.0 0.00 0.00 0.00 83 1015.4
20260508041616 62 0.0 0.0 0.00 0.00 0.00 82 1015.3
20260508041116 62 0.0 0.0 0.00 0.00 0.00 82 1015.2
20260508040616 62 0.0 0.0 0.00 0.00 0.00 82 1015.1
20260508040116 62 260 0.9 1.7 0.00 0.00 0.00 82 1015.0
20260508035616 62 283 0.9 0.9 0.00 0.00 0.00 82 1015.1
20260508035116 63 283 1.7 1.7 0.00 0.00 0.00 82 1015.0
20260508034616 63 350 0.9 0.9 0.00 0.00 0.00 82 1014.9
20260508034116 63 305 0.9 1.7 0.00 0.00 0.00 82 1014.8
20260508033616 63 283 2.6 3.5 0.00 0.00 0.00 82 1014.8
20260508033116 63 260 2.6 3.5 0.00 0.00 0.00 82 1014.7
20260508032636 63 283 3.5 5.2 0.00 0.00 0.00 82 1014.7
20260508032116 63 305 2.6 5.2 0.00 0.00 0.00 82 1014.6
20260508031616 63 305 3.5 6.1 0.00 0.00 0.00 83 1014.5
20260508031136 63 283 3.5 4.3 0.00 0.00 0.00 83 1014.4
20260508030616 63 283 3.5 5.2 0.00 0.00 0.00 83 1014.4
20260508030116 63 305 2.6 3.5 0.00 0.00 0.00 83 1014.4
20260508025616 64 283 3.5 4.3 0.00 0.00 0.00 82 1014.3
20260508025116 64 305 1.7 3.5 0.00 0.00 0.00 82 1014.2
20260508024616 64 305 1.7 3.5 0.00 0.00 0.00 81 1014.1
20260508024116 64 283 2.6 4.3 0.00 0.00 0.00 80 1014.1
20260508023616 65 283 4.3 7.0 0.00 0.00 0.00 79 1014.0
20260508023136 65 305 2.6 7.0 0.00 0.00 0.00 78 1013.9
20260508022616 66 305 3.5 5.2 0.00 0.00 0.00 77 1013.9
20260508022136 66 283 2.6 3.5 0.00 0.00 0.00 77 1013.8
20260508021616 66 260 3.5 5.2 0.00 0.00 0.00 76 1013.8
20260508021116 66 283 3.5 5.2 0.00 0.00 0.00 75 1013.8
20260508020636 67 260 4.3 6.1 0.00 0.00 0.00 74 1013.7
20260508020115 67 283 2.6 3.5 0.00 0.00 0.00 73 1013.7
20260508015616 68 260 4.3 5.2 0.00 0.00 0.00 72 1013.6
20260508015136 68 260 4.3 5.2 0.00 0.00 0.00 72 1013.6
20260508014615 68 260 4.3 6.1 0.00 0.00 0.00 72 1013.6
20260508014136 68 283 4.3 6.1 0.00 0.00 0.00 71 1013.6
20260508013636 68 283 4.3 6.1 0.00 0.00 0.00 70 1013.5
20260508013156 69 260 4.3 6.1 0.00 0.00 0.00 70 1013.5
20260508012636 69 283 3.5 5.2 0.00 0.00 0.00 70 1013.5
20260508012136 69 305 6.1 9.6 0.00 0.00 0.00 69 1013.5
20260508011615 69 283 6.1 9.6 0.00 0.00 0.00 68 1013.5
20260508011115 69 283 5.2 7.8 0.00 0.00 0.00 69 1013.5
20260508010616 69 305 6.1 8.7 0.00 0.00 0.00 68 1013.5
20260508010116 70 283 7.0 10.4 0.00 0.00 0.00 68 1013.5
20260508005615 70 283 6.1 9.6 0.00 0.00 0.00 67 1013.5
20260508005116 70 260 3.5 5.2 0.00 0.00 0.00 68 1013.6
20260508004615 71 305 5.2 7.8 0.00 0.00 0.00 66 1013.5
20260508004116 71 305 4.3 8.7 0.00 0.00 0.00 66 1013.4
20260508003615 71 305 5.2 7.8 0.00 0.00 0.00 67 1013.4
20260508003115 71 260 6.1 8.7 0.00 0.00 0.00 66 1013.4
20260508002616 71 260 5.2 7.8 0.00 0.00 0.00 67 1013.4
20260508002115 71 260 4.3 5.2 0.00 0.00 0.00 67 1013.5
20260508001615 71 283 5.2 7.0 0.00 0.00 0.00 68 1013.5
20260508001115 71 283 4.3 6.1 0.00 0.00 0.00 68 1013.5
20260508000616 72 260 6.1 7.8 0.00 0.00 0.00 67 1013.4
20260508000136 72 260 4.3 6.1 0.00 0.00 0.00 67 1013.5
20260507235656 72 260 4.3 7.0 0.00 0.00 0.00 67 1013.5
20260507235116 72 260 5.2 7.8 0.00 0.00 0.00 66 1013.5
20260507234616 72 283 5.2 6.1 0.00 0.00 0.00 65 1013.5
20260507234116 73 283 3.5 6.1 0.00 0.00 0.00 65 1013.5
20260507233636 72 260 5.2 8.7 0.00 0.00 0.00 65 1013.6
20260507233115 73 260 4.3 7.0 0.00 0.00 0.00 65 1013.6
20260507232616 73 283 5.2 8.7 0.00 0.00 0.00 65 1013.6
20260507232116 73 260 6.1 7.8 0.00 0.00 0.00 65 1013.6
20260507231615 73 328 5.2 8.7 0.00 0.00 0.00 65 1013.6
20260507231115 72 238 2.6 5.2 0.00 0.00 0.00 65 1013.7
20260507230615 73 260 3.5 5.2 0.00 0.00 0.00 65 1013.6
20260507230115 72 283 3.5 6.1 0.00 0.00 0.00 65 1013.7
20260507225616 72 283 3.5 6.1 0.00 0.00 0.00 66 1013.6
20260507225115 73 260 6.1 9.6 0.00 0.00 0.00 65 1013.6
20260507224615 73 260 3.5 6.1 0.00 0.00 0.00 65 1013.7
20260507224216 72 283 4.3 6.1 0.00 0.00 0.00 66 1013.7
20260507223655 73 305 4.3 8.7 0.00 0.00 0.00 64 1013.8
20260507223115 73 283 5.2 7.0 0.00 0.00 0.00 64 1013.9
20260507222635 73 283 5.2 7.8 0.00 0.00 0.00 64 1013.8
20260507222115 74 305 4.3 10.4 0.00 0.00 0.00 63 1013.9
20260507221615 74 283 5.2 7.0 0.00 0.00 0.00 62 1014.0
20260507221115 74 305 4.3 7.0 0.00 0.00 0.00 63 1014.0
20260507220615 75 260 5.2 7.8 0.00 0.00 0.00 61 1014.1
20260507220115 75 283 4.3 6.1 0.00 0.00 0.00 62 1014.1
20260507215636 75 283 4.3 6.1 0.00 0.00 0.00 61 1014.1
20260507215115 75 283 3.5 7.0 0.00 0.00 0.00 62 1014.1
20260507214615 75 260 4.3 5.2 0.00 0.00 0.00 61 1014.3
20260507214115 76 260 4.3 6.1 0.00 0.00 0.00 60 1014.3
20260507213656 76 260 2.6 4.3 0.00 0.00 0.00 61 1014.3
20260507213135 76 238 3.5 6.1 0.00 0.00 0.00 60 1014.3
20260507212615 75 148 0.9 2.6 0.00 0.00 0.00 59 1014.3
20260507212115 75 238 3.5 7.0 0.00 0.00 0.00 60 1014.4
20260507211615 75 215 2.6 3.5 0.00 0.00 0.00 60 1014.5
20260507211115 76 148 1.7 2.6 0.00 0.00 0.00 59 1014.5
20260507210615 75 238 3.5 6.1 0.00 0.00 0.00 59 1014.6
20260507210115 76 170 3.5 5.2 0.00 0.00 0.00 59 1014.7
20260507205615 75 260 3.5 6.1 0.00 0.00 0.00 58 1014.8
20260507205115 75 148 4.3 7.8 0.00 0.00 0.00 60 1014.8
20260507204615 75 170 4.3 5.2 0.00 0.00 0.00 60 1014.8
20260507204115 74 215 1.7 2.6 0.00 0.00 0.00 61 1014.9
20260507203615 73 148 1.7 2.6 0.00 0.00 0.00 62 1014.9
20260507203115 73 215 3.5 6.1 0.00 0.00 0.00 61 1014.9
20260507202615 74 148 2.6 5.2 0.00 0.00 0.00 62 1014.9
20260507202115 74 148 1.7 3.5 0.00 0.00 0.00 63 1014.9
20260507201615 73 215 3.5 6.1 0.00 0.00 0.00 63 1015.0
20260507201115 73 125 4.3 7.0 0.00 0.00 0.00 62 1015.1
20260507200617 73 148 3.5 6.1 0.00 0.00 0.00 62 1015.2
20260507200137 74 148 2.6 3.5 0.00 0.00 0.00 61 1015.3
20260507195617 74 148 2.6 4.3 0.00 0.00 0.00 60 1015.3
20260507195115 74 283 2.6 3.5 0.00 0.00 0.00 62 1015.4
20260507194637 73 260 4.3 7.8 0.00 0.00 0.00 63 1015.4
20260507194117 73 215 2.6 3.5 0.00 0.00 0.00 64 1015.5
20260507193616 73 148 5.2 7.8 0.00 0.00 0.00 64 1015.5
20260507193115 73 125 5.2 7.0 0.00 0.00 0.00 64 1015.4
20260507192617 73 238 3.5 6.1 0.00 0.00 0.00 63 1015.5
20260507192117 73 148 6.1 7.8 0.00 0.00 0.00 63 1015.6
20260507191617 73 238 3.5 5.2 0.00 0.00 0.00 64 1015.6
20260507191117 72 170 3.5 5.2 0.00 0.00 0.00 64 1015.7
20260507190657 72 148 3.5 5.2 0.00 0.00 0.00 64 1015.8
20260507190137 73 170 4.3 6.1 0.00 0.00 0.00 63 1015.7
20260507185617 73 125 1.7 3.5 0.00 0.00 0.00 63 1015.8
20260507185117 73 148 3.5 5.2 0.00 0.00 0.00 63 1015.9
20260507184617 73 125 2.6 3.5 0.00 0.00 0.00 63 1015.9
20260507184157 73 125 3.5 6.1 0.00 0.00 0.00 63 1015.9
20260507183617 72 148 0.9 3.5 0.00 0.00 0.00 64 1015.9
20260507183115 72 238 2.6 5.2 0.00 0.00 0.00 63 1016.0
20260507182617 71 0.0 1.7 0.00 0.00 0.00 64 1016.0
20260507182117 72 148 3.5 4.3 0.00 0.00 0.00 64 1016.1
20260507181617 72 148 2.6 6.1 0.00 0.00 0.00 64 1016.0
20260507181117 71 215 3.5 5.2 0.00 0.00 0.00 64 1016.1
20260507180617 72 148 1.7 3.5 0.00 0.00 0.00 64 1016.1
20260507180117 71 80 1.7 3.5 0.00 0.00 0.00 65 1016.1
20260507175617 71 148 2.6 3.5 0.00 0.00 0.00 65 1016.0
20260507175117 71 148 4.3 7.0 0.00 0.00 0.00 64 1016.1
20260507174617 72 215 3.5 5.2 0.00 0.00 0.00 63 1016.1
20260507174117 72 148 1.7 4.3 0.00 0.00 0.00 65 1016.2
20260507173617 71 125 1.7 2.6 0.00 0.00 0.00 66 1016.2
20260507173117 71 125 1.7 4.3 0.00 0.00 0.00 66 1016.2
20260507172617 71 260 1.7 2.6 0.00 0.00 0.00 66 1016.2
20260507172117 70 215 1.7 3.5 0.00 0.00 0.00 67 1016.2
20260507171617 70 260 2.6 3.5 0.00 0.00 0.00 66 1016.2
20260507171137 70 125 2.6 4.3 0.00 0.00 0.00 66 1016.2
20260507170617 71 125 5.2 7.0 0.00 0.00 0.00 64 1016.2
20260507170117 70 260 0.9 2.6 0.00 0.00 0.00 65 1016.2
20260507165617 70 238 2.6 4.3 0.00 0.00 0.00 66 1016.2
20260507165117 70 215 1.7 2.6 0.00 0.00 0.00 66 1016.2
20260507164617 70 170 0.9 1.7 0.00 0.00 0.00 67 1016.2
20260507164117 70 305 0.9 2.6 0.00 0.00 0.00 68 1016.3
20260507163617 70 148 2.6 3.5 0.00 0.00 0.00 68 1016.3
20260507163117 70 148 1.7 2.6 0.00 0.00 0.00 68 1016.4
20260507162737 70 0.0 0.9 0.00 0.00 0.00 69 1016.4
20260507162137 69 0.0 0.0 0.00 0.00 0.00 71 1016.4
20260507161617 68 103 0.9 1.7 0.00 0.00 0.00 71 1016.5
20260507161116 69 125 2.6 3.5 0.00 0.00 0.00 70 1016.5
20260507160617 69 148 1.7 3.5 0.00 0.00 0.00 69 1016.5
20260507160116 69 0.0 0.9 0.00 0.00 0.00 72 1016.5
20260507155617 68 0.0 0.0 0.00 0.00 0.00 75 1016.6
20260507155116 67 0.0 0.0 0.00 0.00 0.00 77 1016.6
20260507154616 67 0.0 0.9 0.00 0.00 0.00 76 1016.6
20260507154116 66 35 0.9 0.9 0.00 0.00 0.00 78 1016.6
20260507153617 65 13 0.9 0.9 0.00 0.00 0.00 80 1016.6
20260507153116 64 0.0 0.9 0.00 0.00 0.00 79 1016.5
20260507152617 65 0.0 0.9 0.00 0.00 0.00 81 1016.6
20260507152117 65 0.0 0.0 0.00 0.00 0.00 82 1016.7
20260507151637 64 13 0.9 1.7 0.00 0.00 0.00 81 1016.7
20260507151116 63 0.0 0.0 0.00 0.00 0.00 86 1016.7
20260507150616 62 305 0.9 0.9 0.00 0.00 0.00 84 1016.7
20260507150117 62 305 0.9 0.9 0.00 0.00 0.00 85 1016.7
20260507145617 62 283 0.9 0.9 0.00 0.00 0.00 86 1016.7
20260507145137 61 0.0 0.9 0.00 0.00 0.00 87 1016.6
20260507144617 60 305 0.9 1.7 0.00 0.00 0.00 88 1016.7
20260507144117 60 260 1.7 1.7 0.00 0.00 0.00 89 1016.6
20260507143616 60 0.0 0.9 0.00 0.00 0.00 90 1016.6
20260507143116 59 260 0.9 1.7 0.00 0.00 0.00 91 1016.5
20260507142637 59 0.0 0.9 0.00 0.00 0.00 92 1016.5
20260507142117 59 0.0 0.9 0.00 0.00 0.00 93 1016.4
20260507141617 58 0.0 0.9 0.00 0.00 0.00 94 1016.4
20260507141117 58 0.0 0.0 0.00 0.00 0.00 95 1016.3
20260507140616 57 0.0 0.0 0.00 0.00 0.00 95 1016.4
20260507140116 57 0.0 0.0 0.00 0.00 0.00 95 1016.3
20260507135617 57 0.0 0.0 0.00 0.00 0.00 95 1016.2
20260507135117 56 0.0 0.0 0.00 0.00 0.00 95 1016.2
20260507134616 56 0.0 0.0 0.00 0.00 0.00 95 1016.1
20260507134137 56 0.0 0.0 0.00 0.00 0.00 95 1016.0
20260507133616 56 0.0 0.0 0.00 0.00 0.00 95 1016.0
20260507133137 55 0.0 0.0 0.00 0.00 0.00 95 1016.0
20260507132616 55 0.0 0.0 0.00 0.00 0.00 95 1015.9
20260507132136 55 0.0 0.0 0.00 0.00 0.00 95 1016.0
20260507131617 55 0.0 0.0 0.00 0.00 0.00 95 1015.9
20260507131117 55 0.0 0.0 0.00 0.00 0.00 95 1015.9
20260507130617 54 0.0 0.0 0.00 0.00 0.00 95 1015.8
20260507130117 55 0.0 0.0 0.00 0.00 0.00 95 1015.8
20260507125616 55 0.0 0.0 0.00 0.00 0.00 94 1015.7
20260507125117 55 0.0 0.0 0.00 0.00 0.00 94 1015.6
20260507124616 55 0.0 0.0 0.00 0.00 0.00 95 1015.6
20260507124116 55 0.0 0.0 0.00 0.00 0.00 94 1015.6
20260507123616 55 0.0 0.0 0.00 0.00 0.00 94 1015.7
20260507123117 54 0.0 0.0 0.00 0.00 0.00 94 1015.7
20260507122656 55 0.0 0.0 0.00 0.00 0.00 94 1015.6
20260507122116 55 0.0 0.0 0.00 0.00 0.00 94 1015.7
20260507121616 55 0.0 0.0 0.00 0.00 0.00 94 1015.7
20260507121117 55 0.0 0.0 0.00 0.00 0.00 94 1015.7
20260507120616 55 0.0 0.0 0.00 0.00 0.00 93 1015.7
20260507120116 55 0.0 0.0 0.00 0.00 0.00 93 1015.8
20260507115636 55 0.0 0.0 0.00 0.00 0.00 93 1015.8
20260507115116 56 0.0 0.0 0.00 0.00 0.00 93 1015.8
20260507114616 56 0.0 0.0 0.00 0.00 0.00 93 1015.8
20260507114116 56 0.0 0.0 0.00 0.00 0.00 94 1015.8
20260507113616 56 0.0 0.0 0.00 0.00 0.00 94 1015.8
20260507113116 56 0.0 0.0 0.00 0.00 0.00 93 1015.8
20260507112637 56 0.0 0.0 0.00 0.00 0.00 93 1015.7
20260507112116 56 0.0 0.0 0.00 0.00 0.00 93 1015.8
20260507111616 56 0.0 0.0 0.00 0.00 0.00 93 1015.8
20260507111117 56 0.0 0.0 0.00 0.00 0.00 93 1015.8
20260507110616 56 0.0 0.0 0.00 0.00 0.00 94 1015.9
20260507110116 56 0.0 0.0 0.00 0.00 0.00 94 1015.9
20260507105616 55 0.0 0.0 0.00 0.00 0.00 93 1016.0
20260507105116 55 0.0 0.0 0.00 0.00 0.00 93 1016.0
20260507104616 55 0.0 0.0 0.00 0.00 0.00 93 1016.1
20260507104156 56 0.0 0.0 0.00 0.00 0.00 93 1016.1
20260507103616 56 0.0 0.0 0.00 0.00 0.00 93 1016.1
20260507103136 56 0.0 0.0 0.00 0.00 0.00 93 1016.1
20260507102616 56 0.0 0.0 0.00 0.00 0.00 93 1016.2
20260507102116 56 0.0 0.0 0.00 0.00 0.00 92 1016.2
20260507101616 56 0.0 0.0 0.00 0.00 0.00 92 1016.2
20260507101116 56 0.0 0.0 0.00 0.00 0.00 93 1016.2
20260507100616 56 0.0 0.0 0.00 0.00 0.00 92 1016.1
20260507100116 56 0.0 0.0 0.00 0.00 0.00 93 1016.1
20260507095616 56 0.0 0.0 0.00 0.00 0.00 93 1016.2
20260507095116 56 0.0 0.0 0.00 0.00 0.00 92 1016.3
20260507094616 57 0.0 0.0 0.00 0.00 0.00 92 1016.3
20260507094116 57 0.0 0.0 0.00 0.00 0.00 92 1016.3
20260507093616 57 0.0 0.0 0.00 0.00 0.00 93 1016.4
20260507093136 57 0.0 0.0 0.00 0.00 0.00 92 1016.4
20260507092636 57 0.0 0.0 0.00 0.00 0.00 92 1016.5
20260507092116 57 0.0 0.0 0.00 0.00 0.00 92 1016.5
20260507091616 57 0.0 0.0 0.00 0.00 0.00 92 1016.5
20260507091116 57 0.0 0.0 0.00 0.00 0.00 92 1016.6
20260507090616 57 0.0 0.0 0.00 0.00 0.00 93 1016.7
20260507090116 57 0.0 0.0 0.00 0.00 0.00 93 1016.7
20260507085616 57 0.0 0.0 0.00 0.00 0.00 92 1016.8
20260507085136 57 0.0 0.0 0.00 0.00 0.00 92 1016.7
20260507084616 57 0.0 0.0 0.00 0.00 0.00 92 1016.8
20260507084116 57 0.0 0.0 0.00 0.00 0.00 92 1016.8
20260507083616 57 0.0 0.0 0.00 0.00 0.00 92 1016.9
20260507083116 57 0.0 0.0 0.00 0.00 0.00 91 1016.9
20260507082636 57 0.0 0.0 0.00 0.00 0.00 91 1016.9
20260507082116 57 0.0 0.0 0.00 0.00 0.00 91 1016.9
20260507081616 57 0.0 0.0 0.00 0.00 0.00 92 1016.9
20260507081116 57 0.0 0.0 0.00 0.00 0.00 91 1017.0
20260507080636 57 0.0 0.0 0.00 0.00 0.00 91 1017.1
20260507080156 57 0.0 0.0 0.00 0.00 0.00 90 1017.1
20260507075616 58 0.0 0.0 0.00 0.00 0.00 90 1017.1
20260507075116 58 0.0 0.0 0.00 0.00 0.00 90 1017.1
20260507074616 58 0.0 0.0 0.00 0.00 0.00 90 1017.1
20260507074116 58 0.0 0.0 0.00 0.00 0.00 89 1017.2
20260507073636 58 0.0 0.0 0.00 0.00 0.00 89 1017.1
20260507073116 58 0.0 0.0 0.00 0.00 0.00 89 1017.2
20260507072616 59 0.0 0.0 0.00 0.00 0.00 89 1017.3
20260507072116 59 0.0 0.0 0.00 0.00 0.00 88 1017.3
20260507071636 59 0.0 0.0 0.00 0.00 0.00 88 1017.3